Find Kazsat-3

NORAD ID: 39728 Int'l Des: 2014-023 Owner: KAZK Country: KZ operational
HEOCIRCULARGSOGEO

Aktuelle Ansicht

3D-Globus wird geladen...

Über Kazsat-3

Beschreibung wird geladen...

Nächste Überflüge

Passes for default location (London). Set your location on the main map for personalized predictions.

Höhenverlauf

Loading altitude history...

Zweizeiliger Elementsatz

1 39728U 14023B 26146.45089752 .00000063 00000-0 00000-0 0 9997
2 39728 0.0472 85.5790 0000391 48.7286 330.5448 1.00274191 42240
Epoch: 26. Mai 2026 • Age: 13 hours

Aktueller Status

Höhe 35787.0 km
Geschwindigkeit 3.07 km/s
Subsatellitenpunkt -0.03°S, 58.51°E
Startdatum 28. Apr. 2014
Alter 12 years
Typ other

Technische Details

Klassifizierung Payload
Masse 1743.00 kg
Trockenmasse 1600.00 kg
Gesamtmasse 1743.00 kg
Länge 4.00 m
Durchmesser 2.00 m
Spannweite 15.00 m
Form Box + 2 Pan
Hersteller RESH
Bus-Typ Ekspress-1000H
Phasenstatus In Orbit
Besitzer/Staat KAZK/KZ

Most Searched